,,Stat6,,Stat2,,Stat8,,Stat9,,Stat10,,Wind1,,Wind1,
time,status,PA1M_AVG,status,PR1M_SUM,status,RH1M_AVG,status,SR1M_AVG,status,TA1M_AVG,status,W1dAve1m,status,W1sAve1m,
2004-01-24, 00:00:00,VALID,917.291,VALID,0,VALID,92.5995,VALID,0,VALID,20.2189,VALID,112,VALID,1.23583,
2004-01-24, 00:01:00,VALID,917.288,VALID,0,VALID,92.7597,VALID,0.0169808,VALID,20.1834,VALID,105,VALID,1.21113,
2004-01-24, 00:02:00,VALID,917.281,VALID,0,VALID,92.8996,VALID,0,VALID,20.1573,VALID,122,VALID,1.21354,
2004-01-24, 00:03:00,VALID,917.272,VALID,0,VALID,92.8309,VALID,0,VALID,20.1248,VALID,127,VALID,1.05305,
2004-01-24, 00:04:00,VALID,917.249,VALID,0,VALID,92.6885,VALID,0.0169808,VALID,20.132,VALID,106,VALID,1.506,
2004-01-24, 00:05:00,VALID,917.227,VALID,0,VALID,92.1913,VALID,0,VALID,20.1441,VALID,108,VALID,1.2649,
2004-01-24, 00:06:00,VALID,917.221,VALID,0,VALID,92.5563,VALID,0.0169808,VALID,20.1896,VALID,119,VALID,0.56622,
2004-01-24, 00:07:00,VALID,917.222,VALID,0,VALID,92.7178,VALID,0.0169808,VALID,20.1829,VALID,89,VALID,0.488653,
2004-01-24, 00:08:00,VALID,917.22,VALID,0,VALID,92.8348,VALID,0.0169808,VALID,20.1667,VALID,96,VALID,0.416295,
2004-01-24, 00:09:00,VALID,917.212,VALID,0,VALID,92.8831,VALID,0,VALID,20.1412,VALID,81,VALID,0.577344,
2004-01-24, 00:10:00,VALID,917.202,VALID,0,VALID,93.159,VALID,0,VALID,20.1248,VALID,102,VALID,0.42081,
2004-01-24, 00:11:00,VALID,917.221,VALID,0,VALID,93.4133,VALID,0.0169808,VALID,20.1156,VALID,116,VALID,0.388086,
2004-01-24, 00:12:00,VALID,917.213,VALID,0,VALID,93.7211,VALID,0,VALID,20.1032,VALID,132,VALID,0.538872,
2004-01-24, 00:13:00,VALID,917.218,VALID,0,VALID,94.0644,VALID,0,VALID,20.09,VALID,121,VALID,0.181212,
2004-01-24, 00:14:00,VALID,917.209,VALID,0,VALID,94.245,VALID,0,VALID,20.0669,VALID,119,VALID,0.433771,
2004-01-24, 00:15:00,VALID,917.192,VALID,0,VALID,94.4306,VALID,0.0169808,VALID,20.045,VALID,111,VALID,0.352471,
2004-01-24, 00:16:00,VALID,917.17,VALID,0,VALID,94.6926,VALID,0,VALID,19.9958,VALID,90,VALID,0.397321,
2004-01-24, 00:17:00,VALID,917.153,VALID,0.2,VALID,94.7053,VALID,0.0169808,VALID,19.9635,VALID,127,VALID,0.471181,
2004-01-24, 00:18:00,VALID,917.157,VALID,0,VALID,94.6379,VALID,0.0169808,VALID,19.9511,VALID,97,VALID,0.595052,
2004-01-24, 00:19:00,VALID,917.149,VALID,0,VALID,94.5718,VALID,0.0339617,VALID,19.9345,VALID,131,VALID,0.909979,
2004-01-24, 00:20:00,VALID,917.148,VALID,0,VALID,94.5552,VALID,0.0339617,VALID,19.9372,VALID,121,VALID,0.456759,
2004-01-24, 00:21:00,VALID,917.157,VALID,0,VALID,94.6188,VALID,0.0169808,VALID,19.9442,VALID,121,VALID,0.335069,
2004-01-24, 00:22:00,VALID,917.157,VALID,0,VALID,94.7333,VALID,0.0169808,VALID,19.9307,VALID,153,VALID,0.484756,
2004-01-24, 00:23:00,VALID,917.152,VALID,0,VALID,94.7422,VALID,0.0169808,VALID,19.9444,VALID,139,VALID,0.384811,
2004-01-24, 00:24:00,VALID,917.152,VALID,0,VALID,94.8159,VALID,0.0169808,VALID,19.9312,VALID,135,VALID,0.46147,
2004-01-24, 00:25:00,VALID,917.143,VALID,0,VALID,94.9952,VALID,0.0509425,VALID,19.9275,VALID,139,VALID,0.317187,
2004-01-24, 00:26:00,VALID,917.124,VALID,0,VALID,95.1046,VALID,0.0169808,VALID,19.9154,VALID,139,VALID,0.534299,
2004-01-24, 00:27:00,VALID,917.12,VALID,0,VALID,95.2012,VALID,0,VALID,19.8764,VALID,135,VALID,0.548633,
2004-01-24, 00:28:00,VALID,917.1,VALID,0,VALID,95.4911,VALID,0,VALID,19.8806,VALID,125,VALID,0.382449,
2004-01-24, 00:29:00,VALID,917.086,VALID,0,VALID,95.6272,VALID,0,VALID,19.8674,VALID,117,VALID,0.334666,
2004-01-24, 00:30:00,VALID,917.072,VALID,0,VALID,95.7734,VALID,0,VALID,19.8381,VALID,143,VALID,0.744368,
2004-01-24, 00:31:00,VALID,917.059,VALID,0,VALID,95.8536,VALID,0,VALID,19.7993,VALID,153,VALID,0.954514,
2004-01-24, 00:32:00,VALID,917.03,VALID,0,VALID,95.9909,VALID,0.0169808,VALID,19.78,VALID,147,VALID,1.01677,
2004-01-24, 00:33:00,VALID,917.027,VALID,0,VALID,96.0888,VALID,-0.0169808,VALID,19.7541,VALID,148,VALID,0.81612,
2004-01-24, 00:34:00,VALID,917.018,VALID,0,VALID,96.216,VALID,0.0169808,VALID,19.7442,VALID,154,VALID,0.611632,
2004-01-24, 00:35:00,VALID,917.034,VALID,0,VALID,96.3533,VALID,0,VALID,19.7283,VALID,153,VALID,0.364169,
2004-01-24, 00:36:00,VALID,917.03,VALID,0,VALID,96.5059,VALID,0,VALID,19.7186,VALID,145,VALID,0.171512,
2004-01-24, 00:37:00,VALID,917.032,VALID,0,VALID,96.6038,VALID,0.0169808,VALID,19.7246,VALID,142,VALID,0.332812,
2004-01-24, 00:38:00,VALID,917.032,VALID,0,VALID,96.6839,VALID,0,VALID,19.7323,VALID,145,VALID,0.16276,
2004-01-24, 00:39:00,VALID,917.025,VALID,0,VALID,96.6712,VALID,0,VALID,19.7318,VALID,145,VALID,0.00710227,
2004-01-24, 00:40:00,VALID,917.033,VALID,0,VALID,96.7589,VALID,0,VALID,19.7315,VALID,145,VALID,0,
2004-01-24, 00:41:00,VALID,917.029,VALID,0,VALID,96.9446,VALID,0,VALID,19.7646,VALID,145,VALID,0.126116,
2004-01-24, 00:42:00,VALID,917.025,VALID,0,VALID,96.9115,VALID,0,VALID,19.7606,VALID,139,VALID,0.338914,
2004-01-24, 00:43:00,VALID,917.021,VALID,0,VALID,96.7284,VALID,-0.0169808,VALID,19.7517,VALID,114,VALID,0.434722,
2004-01-24, 00:44:00,VALID,917.018,VALID,0,VALID,96.7246,VALID,-0.0339617,VALID,19.7387,VALID,106,VALID,0.237109,
2004-01-24, 00:45:00,VALID,916.997,VALID,0,VALID,96.7424,VALID,-0.0509425,VALID,19.7353,VALID,115,VALID,0.358073,
2004-01-24, 00:46:00,VALID,916.978,VALID,0,VALID,96.6699,VALID,-0.0339617,VALID,19.7323,VALID,161,VALID,0.575868,
2004-01-24, 00:47:00,VALID,916.952,VALID,0,VALID,96.7233,VALID,0,VALID,19.7248,VALID,177,VALID,0.554688,
2004-01-24, 00:48:00,VALID,916.914,VALID,0,VALID,96.6648,VALID,-0.0339617,VALID,19.7353,VALID,180,VALID,0.581182,
2004-01-24, 00:49:00,VALID,916.891,VALID,0,VALID,96.7055,VALID,-0.0509425,VALID,19.7218,VALID,178,VALID,0.363095,
2004-01-24, 00:50:00,VALID,916.88,VALID,0,VALID,96.736,VALID,-0.0509425,VALID,19.7355,VALID,172,VALID,0.290234,
2004-01-24, 00:51:00,VALID,916.867,VALID,0,VALID,96.8212,VALID,-0.0509425,VALID,19.7328,VALID,140,VALID,0.4133,
2004-01-24, 00:52:00,VALID,916.855,VALID,0,VALID,96.8073,VALID,-0.0339617,VALID,19.7189,VALID,129,VALID,0.610795,
2004-01-24, 00:53:00,VALID,916.862,VALID,0,VALID,96.8467,VALID,-0.0339617,VALID,19.7062,VALID,151,VALID,0.291061,
2004-01-24, 00:54:00,VALID,916.862,VALID,0,VALID,96.8416,VALID,0,VALID,19.7025,VALID,133,VALID,0.708274,
2004-01-24, 00:55:00,VALID,916.856,VALID,0,VALID,96.8785,VALID,-0.0169808,VALID,19.693,VALID,125,VALID,0.49564,
2004-01-24, 00:56:00,VALID,916.844,VALID,0,VALID,96.8416,VALID,-0.0169808,VALID,19.6866,VALID,141,VALID,0.258358,
2004-01-24, 00:57:00,VALID,916.855,VALID,0,VALID,96.8543,VALID,0,VALID,19.7032,VALID,142,VALID,0.133539,
2004-01-24, 00:58:00,VALID,916.873,VALID,0,VALID,96.9942,VALID,-0.0339617,VALID,19.7027,VALID,59,VALID,0.533053,
2004-01-24, 00:59:00,VALID,916.879,VALID,0,VALID,97.1315,VALID,-0.0169808,VALID,19.7186,VALID,40,VALID,0.622869,
2004-01-24, 01:00:00,VALID,916.872,VALID,0,VALID,96.998,VALID,-0.0679233,VALID,19.7293,VALID,53,VALID,0.288681,
2004-01-24, 01:01:00,VALID,916.854,VALID,0,VALID,96.9675,VALID,-0.0169808,VALID,19.7087,VALID,59,VALID,0.142485,
2004-01-24, 01:02:00,VALID,916.832,VALID,0,VALID,96.8746,VALID,-0.0339617,VALID,19.7127,VALID,150,VALID,0.518293,
2004-01-24, 01:03:00,VALID,916.83,VALID,0,VALID,96.7755,VALID,0,VALID,19.7218,VALID,180,VALID,0.795351,
2004-01-24, 01:04:00,VALID,916.851,VALID,0,VALID,96.6191,VALID,0,VALID,19.7087,VALID,156,VALID,0.656428,
2004-01-24, 01:05:00,VALID,916.877,VALID,0,VALID,96.764,VALID,0,VALID,19.7221,VALID,68,VALID,0.616655,
2004-01-24, 01:06:00,VALID,916.893,VALID,0,VALID,96.9459,VALID,-0.0169808,VALID,19.7385,VALID,26,VALID,0.928757,
2004-01-24, 01:07:00,VALID,916.895,VALID,0,VALID,97.1061,VALID,-0.0169808,VALID,19.7544,VALID,23,VALID,0.698864,
2004-01-24, 01:08:00,VALID,916.877,VALID,0,VALID,97.1849,VALID,-0.0169808,VALID,19.7641,VALID,22,VALID,0.323958,
2004-01-24, 01:09:00,VALID,916.871,VALID,0,VALID,97.2612,VALID,0,VALID,19.7767,VALID,22,VALID,0.335156,
2004-01-24, 01:10:00,VALID,916.871,VALID,0,VALID,97.1786,VALID,0,VALID,19.7869,VALID,29,VALID,0.21657,
2004-01-24, 01:11:00,VALID,916.858,VALID,0,VALID,96.8886,VALID,0,VALID,19.7767,VALID,83,VALID,0.43192,
2004-01-24, 01:12:00,VALID,916.854,VALID,0,VALID,96.7945,VALID,-0.0339617,VALID,19.7708,VALID,88,VALID,0.35026,
2004-01-24, 01:13:00,VALID,916.846,VALID,0,VALID,96.6356,VALID,-0.0849042,VALID,19.7785,VALID,88,VALID,0.244336,
2004-01-24, 01:14:00,VALID,916.878,VALID,0,VALID,96.4321,VALID,-0.118866,VALID,19.7822,VALID,88,VALID,0.142805,
2004-01-24, 01:15:00,VALID,916.876,VALID,0,VALID,96.3507,VALID,-0.118866,VALID,19.7785,VALID,88,VALID,0.146875,
2004-01-24, 01:16:00,VALID,916.88,VALID,0,VALID,96.4881,VALID,-0.101885,VALID,19.8008,VALID,88,VALID,0.127604,
2004-01-24, 01:17:00,VALID,916.876,VALID,0,VALID,96.6737,VALID,-0.135847,VALID,19.8364,VALID,88,VALID,0,
2004-01-24, 01:18:00,VALID,916.851,VALID,0,VALID,96.4741,VALID,-0.135847,VALID,19.8331,VALID,88,VALID,0.0669643,
2004-01-24, 01:19:00,VALID,916.844,VALID,0,VALID,96.3037,VALID,-0.135847,VALID,19.8299,VALID,89,VALID,0.301067,
2004-01-24, 01:20:00,VALID,916.816,VALID,0,VALID,96.3037,VALID,-0.118866,VALID,19.8336,VALID,105,VALID,0.453658,
2004-01-24, 01:21:00,VALID,916.802,VALID,0,VALID,96.3686,VALID,-0.152827,VALID,19.8304,VALID,124,VALID,0.476935,
2004-01-24, 01:22:00,VALID,916.805,VALID,0,VALID,96.3686,VALID,-0.118866,VALID,19.8269,VALID,126,VALID,0.716273,
2004-01-24, 01:23:00,VALID,916.795,VALID,0,VALID,96.3253,VALID,-0.118866,VALID,19.8207,VALID,125,VALID,0.509055,
2004-01-24, 01:24:00,VALID,916.801,VALID,0,VALID,96.5161,VALID,-0.101885,VALID,19.8334,VALID,119,VALID,0.28457,
2004-01-24, 01:25:00,VALID,916.789,VALID,0,VALID,96.4894,VALID,-0.135847,VALID,19.8369,VALID,119,VALID,0.139172,
2004-01-24, 01:26:00,VALID,916.778,VALID,0,VALID,96.4817,VALID,-0.118866,VALID,19.8172,VALID,119,VALID,0.00476372,
2004-01-24, 01:27:00,VALID,916.772,VALID,0,VALID,96.5517,VALID,-0.135847,VALID,19.8242,VALID,119,VALID,0.25186,
2004-01-24, 01:28:00,VALID,916.766,VALID,0,VALID,96.7755,VALID,-0.0169808,VALID,19.8225,VALID,119,VALID,0.312109,
2004-01-24, 01:29:00,VALID,916.766,VALID,0,VALID,96.6432,VALID,-0.0169808,VALID,19.8123,VALID,141,VALID,0.861979,
2004-01-24, 01:30:00,VALID,916.766,VALID,0,VALID,96.8136,VALID,0,VALID,19.7991,VALID,131,VALID,0.863758,
2004-01-24, 01:31:00,VALID,916.769,VALID,0,VALID,96.8594,VALID,0,VALID,19.8093,VALID,134,VALID,1.13056,
2004-01-24, 01:32:00,VALID,916.754,VALID,0,VALID,96.6445,VALID,-0.0339617,VALID,19.7738,VALID,138,VALID,1.50372,
2004-01-24, 01:33:00,VALID,916.741,VALID,0,VALID,96.6025,VALID,0,VALID,19.7606,VALID,143,VALID,1.52592,
2004-01-24, 01:34:00,VALID,916.753,VALID,0,VALID,96.5479,VALID,-0.0169808,VALID,19.7671,VALID,130,VALID,1.22898,
2004-01-24, 01:35:00,VALID,916.752,VALID,0,VALID,96.6954,VALID,0,VALID,19.7897,VALID,47,VALID,1.00941,
2004-01-24, 01:36:00,VALID,916.763,VALID,0,VALID,96.9675,VALID,0,VALID,19.8257,VALID,24,VALID,1.34375,
2004-01-24, 01:37:00,VALID,916.754,VALID,0,VALID,96.9268,VALID,-0.0169808,VALID,19.8351,VALID,25,VALID,1.52687,
2004-01-24, 01:38:00,VALID,916.753,VALID,0,VALID,97.0667,VALID,0,VALID,19.8644,VALID,23,VALID,1.34598,
2004-01-24, 01:39:00,VALID,916.724,VALID,0,VALID,96.7449,VALID,-0.0339617,VALID,19.8644,VALID,62,VALID,0.956771,
2004-01-24, 01:40:00,VALID,916.663,VALID,0,VALID,96.3953,VALID,-0.0339617,VALID,19.8351,VALID,126,VALID,0.801136,
2004-01-24, 01:41:00,VALID,916.636,VALID,0,VALID,96.4792,VALID,-0.0169808,VALID,19.8287,VALID,170,VALID,0.925253,
2004-01-24, 01:42:00,VALID,916.64,VALID,0,VALID,96.6636,VALID,-0.0339617,VALID,19.8354,VALID,55,VALID,1.26119,
2004-01-24, 01:43:00,VALID,916.627,VALID,0,VALID,96.7462,VALID,-0.0849042,VALID,19.823,VALID,11,VALID,1.9859,
2004-01-24, 01:44:00,VALID,916.59,VALID,0,VALID,96.6763,VALID,-0.101885,VALID,19.8264,VALID,360,VALID,1.60241,
2004-01-24, 01:45:00,VALID,916.558,VALID,0,VALID,96.4499,VALID,-0.0849042,VALID,19.8398,VALID,355,VALID,1.26905,
2004-01-24, 01:46:00,VALID,916.518,VALID,0.2,VALID,96.1893,VALID,-0.118866,VALID,19.8684,VALID,2,VALID,0.70367,
2004-01-24, 01:47:00,VALID,916.481,VALID,0,VALID,96.1651,VALID,-0.118866,VALID,19.901,VALID,146,VALID,0.614169,
2004-01-24, 01:48:00,VALID,916.444,VALID,0,VALID,96.1091,VALID,-0.101885,VALID,19.9074,VALID,157,VALID,0.751715,
2004-01-24, 01:49:00,VALID,916.419,VALID,0,VALID,96.1562,VALID,-0.101885,VALID,19.8816,VALID,160,VALID,0.660342,
2004-01-24, 01:50:00,VALID,916.411,VALID,0,VALID,96.1536,VALID,-0.0849042,VALID,19.8786,VALID,184,VALID,0.417151,
2004-01-24, 01:51:00,VALID,916.396,VALID,0,VALID,96.1587,VALID,-0.101885,VALID,19.862,VALID,155,VALID,0.877308,
2004-01-24, 01:52:00,VALID,916.393,VALID,0,VALID,96.2643,VALID,-0.101885,VALID,19.8528,VALID,151,VALID,0.936928,
2004-01-24, 01:53:00,VALID,916.383,VALID,0,VALID,96.5046,VALID,-0.118866,VALID,19.8038,VALID,135,VALID,1.44903,
2004-01-24, 01:54:00,VALID,916.381,VALID,0,VALID,96.8251,VALID,-0.101885,VALID,19.775,VALID,135,VALID,1.32031,
2004-01-24, 01:55:00,VALID,916.371,VALID,0,VALID,96.9993,VALID,-0.118866,VALID,19.7333,VALID,136,VALID,1.39281,
2004-01-24, 01:56:00,VALID,916.366,VALID,0,VALID,97.1926,VALID,-0.101885,VALID,19.701,VALID,140,VALID,0.958789,
2004-01-24, 01:57:00,VALID,916.366,VALID,0,VALID,97.3019,VALID,-0.135847,VALID,19.6848,VALID,126,VALID,0.813453,
2004-01-24, 01:58:00,VALID,916.36,VALID,0,VALID,97.4736,VALID,-0.0169808,VALID,19.6707,VALID,109,VALID,0.334375,
2004-01-24, 01:59:00,VALID,916.359,VALID,0,VALID,97.6363,VALID,0,VALID,19.654,VALID,91,VALID,0.626674,
2004-01-24, 02:00:00,VALID,916.354,VALID,0,VALID,97.7139,VALID,0,VALID,19.6506,VALID,115,VALID,0.494913,
2004-01-24, 02:01:00,VALID,916.35,VALID,0,VALID,97.8284,VALID,-0.0169808,VALID,19.6511,VALID,108,VALID,0.830669,
2004-01-24, 02:02:00,VALID,916.348,VALID,0,VALID,97.9174,VALID,0,VALID,19.6486,VALID,100,VALID,1.08535,
2004-01-24, 02:03:00,VALID,916.355,VALID,0,VALID,97.9428,VALID,0,VALID,19.6185,VALID,107,VALID,1.36384,
2004-01-24, 02:04:00,VALID,916.34,VALID,0,VALID,97.8818,VALID,-0.0169808,VALID,19.6284,VALID,123,VALID,1.20625,
2004-01-24, 02:05:00,VALID,916.332,VALID,0,VALID,97.7851,VALID,0,VALID,19.6347,VALID,120,VALID,0.974219,
2004-01-24, 02:06:00,VALID,916.324,VALID,0,VALID,97.6198,VALID,0,VALID,19.6677,VALID,130,VALID,1.12949,
2004-01-24, 02:07:00,VALID,916.311,VALID,0,VALID,97.3947,VALID,0,VALID,19.6861,VALID,124,VALID,1.23681,
2004-01-24, 02:08:00,VALID,916.283,VALID,0,VALID,97.2027,VALID,0,VALID,19.7092,VALID,136,VALID,1.29167,
2004-01-24, 02:09:00,VALID,916.261,VALID,0,VALID,97.1417,VALID,0,VALID,19.7251,VALID,144,VALID,1.19087,
2004-01-24, 02:10:00,VALID,916.23,VALID,0,VALID,97.0959,VALID,0.0169808,VALID,19.7447,VALID,147,VALID,1.20465,
2004-01-24, 02:11:00,VALID,916.214,VALID,0,VALID,97.115,VALID,-0.0169808,VALID,19.7377,VALID,144,VALID,1.13681,
2004-01-24, 02:12:00,VALID,916.195,VALID,0,VALID,97.1455,VALID,0,VALID,19.7345,VALID,166,VALID,1.00709,
2004-01-24, 02:13:00,VALID,916.171,VALID,0,VALID,97.1964,VALID,0,VALID,19.7452,VALID,166,VALID,0.891493,
2004-01-24, 02:14:00,VALID,916.145,VALID,0,VALID,97.2129,VALID,-0.0169808,VALID,19.7355,VALID,151,VALID,0.915179,
2004-01-24, 02:15:00,VALID,916.129,VALID,0,VALID,97.3184,VALID,0,VALID,19.7382,VALID,132,VALID,1.05114,
2004-01-24, 02:16:00,VALID,916.099,VALID,0,VALID,97.2625,VALID,0,VALID,19.7318,VALID,142,VALID,1.01997,
2004-01-24, 02:17:00,VALID,916.069,VALID,0,VALID,97.2549,VALID,-0.0169808,VALID,19.7283,VALID,147,VALID,1.09699,
2004-01-24, 02:18:00,VALID,916.042,VALID,0,VALID,97.2739,VALID,-0.0339617,VALID,19.7348,VALID,122,VALID,1.17206,
2004-01-24, 02:19:00,VALID,916.022,VALID,0,VALID,97.1849,VALID,-0.0169808,VALID,19.7283,VALID,138,VALID,1.43415,
2004-01-24, 02:20:00,VALID,915.996,VALID,0,VALID,97.2218,VALID,0,VALID,19.7251,VALID,130,VALID,1.36128,
2004-01-24, 02:21:00,VALID,915.99,VALID,0,VALID,97.204,VALID,-0.0169808,VALID,19.7286,VALID,134,VALID,1.29632,
2004-01-24, 02:22:00,VALID,915.985,VALID,0,VALID,97.2142,VALID,-0.0169808,VALID,19.7221,VALID,116,VALID,1.11573,
2004-01-24, 02:23:00,VALID,915.972,VALID,0,VALID,97.1519,VALID,0,VALID,19.7253,VALID,107,VALID,0.911204,
2004-01-24, 02:24:00,VALID,915.961,VALID,0,VALID,97.2396,VALID,0,VALID,19.7181,VALID,89,VALID,0.768415,
2004-01-24, 02:25:00,VALID,915.939,VALID,0,VALID,97.3299,VALID,-0.0509425,VALID,19.7318,VALID,99,VALID,0.486737,
2004-01-24, 02:26:00,VALID,915.935,VALID,0,VALID,97.4316,VALID,-0.0169808,VALID,19.7283,VALID,75,VALID,0.709918,
2004-01-24, 02:27:00,VALID,915.913,VALID,0,VALID,97.3871,VALID,0,VALID,19.7385,VALID,84,VALID,0.584162,
2004-01-24, 02:28:00,VALID,915.914,VALID,0,VALID,97.4621,VALID,-0.0169808,VALID,19.7353,VALID,66,VALID,0.659157,
2004-01-24, 02:29:00,VALID,915.911,VALID,0,VALID,97.5867,VALID,-0.0509425,VALID,19.7353,VALID,50,VALID,0.723323,
2004-01-24, 02:30:00,VALID,915.907,VALID,0,VALID,97.7254,VALID,0.0169808,VALID,19.7412,VALID,39,VALID,0.854106,
2004-01-24, 02:31:00,VALID,915.917,VALID,0,VALID,97.7762,VALID,0,VALID,19.7318,VALID,23,VALID,0.772507,
2004-01-24, 02:32:00,VALID,915.914,VALID,0,VALID,97.9314,VALID,-0.0509425,VALID,19.7318,VALID,25,VALID,0.795015,
2004-01-24, 02:33:00,VALID,915.899,VALID,0,VALID,97.8627,VALID,0,VALID,19.7186,VALID,22,VALID,0.548118,
2004-01-24, 02:34:00,VALID,915.885,VALID,0,VALID,97.9199,VALID,-0.0169808,VALID,19.7059,VALID,17,VALID,0.684126,
2004-01-24, 02:35:00,VALID,915.882,VALID,0,VALID,97.836,VALID,0,VALID,19.6963,VALID,12,VALID,0.67066,
2004-01-24, 02:36:00,VALID,915.855,VALID,0,VALID,97.8665,VALID,-0.0509425,VALID,19.6903,VALID,1,VALID,0.658333,
2004-01-24, 02:37:00,VALID,915.836,VALID,0,VALID,97.8843,VALID,0,VALID,19.6806,VALID,1,VALID,0.453472,
2004-01-24, 02:38:00,VALID,915.816,VALID,0,VALID,97.9568,VALID,0,VALID,19.6734,VALID,1,VALID,0.370164,
2004-01-24, 02:39:00,VALID,915.794,VALID,0,VALID,97.864,VALID,0,VALID,19.658,VALID,360,VALID,0.269176,
2004-01-24, 02:40:00,VALID,915.788,VALID,0,VALID,97.8767,VALID,-0.0169808,VALID,19.6317,VALID,360,VALID,0.0024858,
2004-01-24, 02:41:00,VALID,915.771,VALID,0,VALID,98.0483,VALID,0,VALID,19.6379,VALID,360,VALID,0.241824,
2004-01-24, 02:42:00,VALID,915.758,VALID,0,VALID,98.0839,VALID,0,VALID,19.6481,VALID,360,VALID,0.294389,
2004-01-24, 02:43:00,VALID,915.74,VALID,0,VALID,98.103,VALID,-0.101885,VALID,19.6394,VALID,37,VALID,0.418555,
2004-01-24, 02:44:00,VALID,915.731,VALID,0,VALID,98.0979,VALID,-0.101885,VALID,19.614,VALID,142,VALID,0.627046,
2004-01-24, 02:45:00,VALID,915.72,VALID,0,VALID,98.1704,VALID,-0.0849042,VALID,19.6076,VALID,123,VALID,0.442769,
2004-01-24, 02:46:00,VALID,915.707,VALID,0,VALID,98.1157,VALID,-0.0849042,VALID,19.6011,VALID,92,VALID,0.770579,
2004-01-24, 02:47:00,VALID,915.676,VALID,0,VALID,98.1196,VALID,-0.0849042,VALID,19.5974,VALID,59,VALID,0.465116,
2004-01-24, 02:48:00,VALID,915.67,VALID,0,VALID,98.0852,VALID,-0.0679233,VALID,19.5812,VALID,81,VALID,0.559524,
2004-01-24, 02:49:00,VALID,915.658,VALID,0,VALID,98.0598,VALID,-0.101885,VALID,19.5653,VALID,95,VALID,0.772892,
2004-01-24, 02:50:00,VALID,915.638,VALID,0,VALID,98.1272,VALID,-0.101885,VALID,19.5425,VALID,90,VALID,0.904916,
2004-01-24, 02:51:00,VALID,915.638,VALID,0,VALID,98.1374,VALID,-0.0679233,VALID,19.5199,VALID,102,VALID,0.858467,
2004-01-24, 02:52:00,VALID,915.622,VALID,0,VALID,98.0611,VALID,-0.101885,VALID,19.5037,VALID,105,VALID,1.02865,
2004-01-24, 02:53:00,VALID,915.611,VALID,0,VALID,98.0458,VALID,-0.101885,VALID,19.5075,VALID,82,VALID,0.749455,
2004-01-24, 02:54:00,VALID,915.6,VALID,0,VALID,98.0712,VALID,-0.101885,VALID,19.5169,VALID,104,VALID,1.18216,
2004-01-24, 02:55:00,VALID,915.592,VALID,0,VALID,98.103,VALID,-0.101885,VALID,19.5109,VALID,99,VALID,0.789453,
2004-01-24, 02:56:00,VALID,915.56,VALID,0,VALID,98.1628,VALID,-0.118866,VALID,19.4943,VALID,114,VALID,0.971112,
2004-01-24, 02:57:00,VALID,915.549,VALID,0,VALID,98.1412,VALID,-0.101885,VALID,19.5015,VALID,98,VALID,0.915206,
2004-01-24, 02:58:00,VALID,915.519,VALID,0,VALID,98.056,VALID,-0.0169808,VALID,19.4802,VALID,125,VALID,1.30202,
2004-01-24, 02:59:00,VALID,915.523,VALID,0,VALID,97.8436,VALID,-0.0169808,VALID,19.4931,VALID,124,VALID,1.6084,
2004-01-24, 03:00:00,VALID,915.528,VALID,0,VALID,97.6147,VALID,0.0169808,VALID,19.5122,VALID,117,VALID,1.71966,
2004-01-24, 03:01:00,VALID,915.534,VALID,0,VALID,97.4291,VALID,0,VALID,19.5216,VALID,97,VALID,1.14933,
2004-01-24, 03:02:00,VALID,915.553,VALID,0,VALID,97.2892,VALID,0.0339617,VALID,19.5415,VALID,105,VALID,1.08256,
2004-01-24, 03:03:00,VALID,915.56,VALID,0,VALID,97.2396,VALID,0.0339617,VALID,19.5348,VALID,93,VALID,0.561257,
2004-01-24, 03:04:00,VALID,915.571,VALID,0,VALID,97.2816,VALID,0.0169808,VALID,19.548,VALID,79,VALID,0.657584,
2004-01-24, 03:05:00,VALID,915.576,VALID,0,VALID,97.1951,VALID,0.0169808,VALID,19.5378,VALID,69,VALID,0.770712,
2004-01-24, 03:06:00,VALID,915.582,VALID,0.2,VALID,97.1748,VALID,0.0169808,VALID,19.5318,VALID,82,VALID,0.597124,
2004-01-24, 03:07:00,VALID,915.588,VALID,0,VALID,97.218,VALID,0,VALID,19.5383,VALID,67,VALID,0.340116,
2004-01-24, 03:08:00,VALID,915.596,VALID,0,VALID,97.101,VALID,0,VALID,19.5279,VALID,98,VALID,0.843006,
2004-01-24, 03:09:00,VALID,915.602,VALID,0,VALID,96.881,VALID,0,VALID,19.539,VALID,105,VALID,1.1582,
2004-01-24, 03:10:00,VALID,915.609,VALID,0,VALID,96.8098,VALID,0,VALID,19.5348,VALID,101,VALID,0.845656,
2004-01-24, 03:11:00,VALID,915.625,VALID,0,VALID,96.717,VALID,0.0169808,VALID,19.5477,VALID,98,VALID,1.25,
2004-01-24, 03:12:00,VALID,915.648,VALID,0,VALID,96.7462,VALID,0,VALID,19.5542,VALID,91,VALID,0.970846,
2004-01-24, 03:13:00,VALID,915.66,VALID,0,VALID,96.6699,VALID,-0.0849042,VALID,19.5557,VALID,103,VALID,1.00119,
2004-01-24, 03:14:00,VALID,915.691,VALID,0,VALID,96.736,VALID,-0.101885,VALID,19.5745,VALID,80,VALID,0.752539,
2004-01-24, 03:15:00,VALID,915.693,VALID,0,VALID,96.7233,VALID,-0.0679233,VALID,19.5812,VALID,85,VALID,1.27616,
2004-01-24, 03:16:00,VALID,915.696,VALID,0,VALID,96.6508,VALID,-0.101885,VALID,19.5884,VALID,86,VALID,1.37188,
2004-01-24, 03:17:00,VALID,915.7,VALID,0.2,VALID,96.5924,VALID,-0.0849042,VALID,19.5912,VALID,97,VALID,1.23547,
2004-01-24, 03:18:00,VALID,915.704,VALID,0,VALID,96.5962,VALID,-0.101885,VALID,19.5947,VALID,76,VALID,1.26448,
2004-01-24, 03:19:00,VALID,915.694,VALID,0,VALID,96.6038,VALID,-0.0849042,VALID,19.6081,VALID,76,VALID,0.962377,
2004-01-24, 03:20:00,VALID,915.675,VALID,0,VALID,96.7055,VALID,-0.0679233,VALID,19.6041,VALID,67,VALID,1.01524,
2004-01-24, 03:21:00,VALID,915.645,VALID,0,VALID,96.5593,VALID,-0.0849042,VALID,19.611,VALID,98,VALID,1.58239,
2004-01-24, 03:22:00,VALID,915.603,VALID,0.2,VALID,96.394,VALID,-0.0849042,VALID,19.5947,VALID,101,VALID,0.931734,
2004-01-24, 03:23:00,VALID,915.556,VALID,0,VALID,96.3825,VALID,-0.101885,VALID,19.5912,VALID,118,VALID,1.13709,
2004-01-24, 03:24:00,VALID,915.483,VALID,0,VALID,96.1308,VALID,-0.118866,VALID,19.6016,VALID,127,VALID,1.72075,
2004-01-24, 03:25:00,VALID,915.419,VALID,0.2,VALID,96.015,VALID,-0.101885,VALID,19.6046,VALID,137,VALID,1.60399,
2004-01-24, 03:26:00,VALID,915.368,VALID,0,VALID,96.1409,VALID,-0.0679233,VALID,19.6245,VALID,136,VALID,1.63929,
2004-01-24, 03:27:00,VALID,915.332,VALID,0,VALID,96.3736,VALID,-0.101885,VALID,19.6009,VALID,123,VALID,1.2901,
2004-01-24, 03:28:00,VALID,915.331,VALID,0.2,VALID,96.5275,VALID,-0.0169808,VALID,19.5703,VALID,127,VALID,1.481,
2004-01-24, 03:29:00,VALID,915.322,VALID,0,VALID,96.778,VALID,0,VALID,19.5445,VALID,129,VALID,1.71584,
2004-01-24, 03:30:00,VALID,915.322,VALID,0,VALID,97.0514,VALID,0,VALID,19.5221,VALID,129,VALID,1.81845,
2004-01-24, 03:31:00,VALID,915.318,VALID,0,VALID,97.2828,VALID,0,VALID,19.4931,VALID,112,VALID,1.6957,
2004-01-24, 03:32:00,VALID,915.312,VALID,0.2,VALID,97.3299,VALID,0.0339617,VALID,19.4518,VALID,110,VALID,1.34375,
2004-01-24, 03:33:00,VALID,915.322,VALID,0,VALID,97.4888,VALID,0,VALID,19.422,VALID,98,VALID,1.19648,
2004-01-24, 03:34:00,VALID,915.336,VALID,0,VALID,97.588,VALID,0,VALID,19.4121,VALID,75,VALID,0.869444,
2004-01-24, 03:35:00,VALID,915.33,VALID,0,VALID,97.7165,VALID,0.0169808,VALID,19.4027,VALID,82,VALID,0.86756,
2004-01-24, 03:36:00,VALID,915.361,VALID,0.2,VALID,97.8818,VALID,-0.0169808,VALID,19.3957,VALID,93,VALID,0.944041,